CW8728 Weather Reports


Display with metric or nautical units.
time (UTC)temp
F
wind
direction
speed
MPH
gust
MPH
rain 1hr
in
rain 24hr
in
rain mn
in
humidity
%
barometer
mb
20190425201030 58 306 0.0 0.0 0.00 0.01 0.01 87 1005.5
20190425200531 58 310 0.0 0.0 0.00 0.01 0.01 87 1005.4
20190425200030 58 306 0.0 0.0 0.00 0.01 0.01 88 1005.4
20190425195530 58 309 0.0 0.0 0.00 0.01 0.01 89 1005.4
20190425195030 58 309 0.0 0.0 0.00 0.01 0.01 89 1005.4
20190425194530 58 310 0.0 0.0 0.00 0.01 0.01 88 1005.4
20190425194030 58 12 0.0 0.0 0.00 0.01 0.01 89 1005.3
20190425193531 58 5 0.0 0.0 0.00 0.01 0.01 90 1005.3
20190425193030 58 5 0.0 0.0 0.00 0.01 0.01 91 1005.3
20190425192531 57 13 0.0 0.0 0.00 0.01 0.01 91 1005.5
20190425192030 57 13 0.0 0.0 0.00 0.01 0.01 91 1005.5
20190425191530 57 13 0.0 0.0 0.00 0.01 0.01 92 1005.6
20190425191030 57 13 0.0 0.0 0.00 0.01 0.01 93 1005.5
20190425190533 57 13 0.0 0.0 0.00 0.01 0.01 93 1005.5
20190425190031 57 16 0.0 0.0 0.00 0.01 0.01 93 1005.5
20190425185531 56 15 0.0 0.0 0.00 0.01 0.01 94 1005.5
20190425185030 56 17 0.0 0.0 0.00 0.01 0.01 95 1005.5
20190425184530 56 17 0.0 0.0 0.00 0.01 0.01 96 1005.5
20190425184031 56 16 0.0 0.0 0.00 0.02 0.01 96 1005.7
20190425183531 56 22 0.0 0.0 0.00 0.02 0.01 96 1005.6
20190425183030 56 22 0.0 0.0 0.00 0.02 0.01 96 1005.6
20190425182530 56 23 0.0 0.0 0.00 0.02 0.01 96 1005.5
20190425182031 56 23 0.0 0.0 0.00 0.02 0.01 96 1005.5
20190425181530 56 16 0.0 0.0 0.00 0.02 0.01 96 1005.5
20190425181030 56 11 0.0 0.0 0.00 0.02 0.01 96 1005.6
20190425180530 55 11 0.0 0.0 0.00 0.02 0.01 96 1005.8
20190425180030 55 17 0.0 0.0 0.00 0.02 0.01 96 1005.7
20190425175530 55 19 0.0 0.0 0.00 0.02 0.01 96 1005.8
20190425175030 55 22 0.0 0.0 0.00 0.02 0.01 96 1005.9
20190425174530 55 22 0.0 0.0 0.00 0.02 0.01 96 1005.9
20190425174030 55 24 0.0 0.0 0.00 0.02 0.01 96 1006.0
20190425173530 55 26 0.0 0.0 0.00 0.02 0.01 96 1006.0
20190425173030 55 17 0.0 0.0 0.00 0.02 0.01 96 1006.0
20190425172530 55 5 0.0 0.0 0.00 0.02 0.01 96 1006.0
20190425172031 56 25 0.0 0.0 0.00 0.02 0.01 96 1006.0
20190425171530 55 24 0.0 0.0 0.00 0.02 0.01 96 1006.1
20190425171030 55 34 0.0 0.0 0.00 0.02 0.01 96 1006.0
20190425170530 55 28 0.0 0.0 0.00 0.02 0.01 96 1006.0
20190425170030 55 28 0.0 0.0 0.00 0.02 0.01 96 1006.0
20190425165530 55 28 0.0 0.0 0.00 0.03 0.01 96 1006.0
20190425165041 55 29 0.0 0.0 0.00 0.03 0.01 96 1006.0
20190425164530 55 30 0.0 0.0 0.00 0.03 0.01 96 1006.0
20190425164030 55 29 0.0 0.0 0.00 0.04 0.01 96 1006.1
20190425163530 55 29 0.0 0.0 0.00 0.04 0.01 96 1006.2
20190425163030 55 29 0.0 0.0 0.00 0.04 0.01 96 1006.2
20190425162530 55 29 0.0 0.0 0.00 0.04 0.01 96 1006.3
20190425162030 55 29 0.0 0.0 0.00 0.04 0.01 96 1006.4
20190425161531 55 24 0.0 0.0 0.00 0.04 0.01 96 1006.5
20190425161030 55 30 0.0 0.0 0.00 0.04 0.01 96 1006.6
20190425160531 55 33 0.0 0.0 0.00 0.04 0.01 96 1006.7
20190425160030 55 33 0.0 0.0 0.00 0.04 0.01 96 1006.8
20190425155530 55 31 0.0 0.0 0.00 0.05 0.01 96 1006.8
20190425155031 55 31 0.0 0.0 0.00 0.05 0.01 96 1006.8
20190425154530 55 24 0.0 0.0 0.00 0.05 0.01 96 1006.8
20190425154030 55 24 0.0 0.0 0.00 0.05 0.01 96 1006.8
20190425153531 55 24 0.0 0.0 0.00 0.05 0.01 96 1006.7
20190425153030 55 24 0.0 0.0 0.00 0.05 0.01 96 1006.8
20190425152530 55 24 0.0 0.0 0.00 0.05 0.01 96 1006.7
20190425152030 55 24 0.0 0.0 0.00 0.05 0.01 96 1006.6
20190425151530 55 24 0.0 0.0 0.00 0.05 0.01 96 1006.6
20190425151030 55 24 0.0 0.0 0.00 0.05 0.01 96 1006.5
20190425150531 55 24 0.0 0.0 0.00 0.05 0.01 96 1006.5
20190425150030 55 24 0.0 0.0 0.00 0.05 0.01 96 1006.5
20190425145530 55 22 0.0 0.0 0.00 0.05 0.01 96 1006.4
20190425145030 55 19 0.0 0.0 0.00 0.05 0.01 96 1006.4
20190425144532 55 19 0.0 0.0 0.00 0.05 0.01 96 1006.3
20190425143530 55 19 0.0 0.0 0.00 0.05 0.01 96 1006.1
20190425143030 55 19 0.0 0.0 0.00 0.05 0.01 96 1006.0
20190425142530 55 14 0.0 0.0 0.00 0.05 0.01 96 1005.9
20190425142031 55 242 0.0 0.0 0.00 0.05 0.01 96 1005.9
20190425141530 55 245 0.0 0.0 0.00 0.05 0.01 96 1005.9
20190425141030 55 183 0.0 0.0 0.00 0.05 0.01 96 1006.0
20190425140530 55 184 0.0 0.0 0.00 0.05 0.01 96 1006.0
20190425140030 55 184 0.0 0.0 0.00 0.05 0.01 96 1006.0
20190425135530 55 184 0.0 0.0 0.00 0.05 0.01 96 1006.1
20190425135030 55 185 0.0 0.0 0.00 0.05 0.01 96 1006.1
20190425134532 55 188 0.0 0.0 0.00 0.05 0.01 96 1006.1
20190425134030 55 188 0.0 0.0 0.00 0.05 0.01 96 1006.3
20190425133530 55 189 0.0 0.0 0.00 0.05 0.01 96 1006.3
20190425133030 55 188 0.0 0.0 0.00 0.05 0.01 96 1006.4
20190425132530 55 188 0.0 0.0 0.00 0.05 0.01 96 1006.4
20190425132030 55 189 0.0 0.0 0.00 0.05 0.01 96 1006.5
20190425131530 55 189 0.0 0.0 0.00 0.05 0.01 96 1006.5
20190425131030 55 201 0.0 0.0 0.00 0.05 0.01 96 1006.5
20190425130530 55 201 0.0 0.0 0.00 0.05 0.01 96 1006.6
20190425130031 55 199 0.0 0.0 0.00 0.05 0.01 96 1006.7
20190425125530 55 199 0.0 0.0 0.00 0.05 0.01 96 1006.7
20190425125031 55 213 0.0 0.0 0.00 0.05 0.01 96 1006.6
20190425124530 55 213 0.0 0.0 0.00 0.05 0.01 96 1006.7
20190425124030 55 213 0.0 0.0 0.00 0.05 0.01 96 1006.7
20190425123531 55 213 0.0 0.0 0.00 0.05 0.01 96 1006.8
20190425123030 55 213 0.0 0.0 0.00 0.05 0.01 96 1006.8
20190425122530 55 213 0.0 0.0 0.00 0.05 0.01 96 1006.8
20190425122030 55 213 0.0 0.0 0.00 0.05 0.01 96 1006.8
20190425121530 55 213 0.0 0.0 0.00 0.05 0.01 96 1006.9
20190425121030 55 213 0.0 0.0 0.00 0.05 0.01 96 1007.0
20190425120530 55 213 0.0 0.0 0.00 0.05 0.01 96 1007.0
20190425120030 55 213 0.0 0.0 0.00 0.05 0.01 96 1007.0
20190425115530 55 213 0.0 0.0 0.00 0.05 0.01 96 1006.9
20190425115030 55 213 0.0 0.0 0.00 0.05 0.01 96 1006.8
20190425114530 55 213 0.0 0.0 0.00 0.05 0.01 96 1006.9
20190425114030 55 213 0.0 0.0 0.00 0.05 0.01 96 1006.9
20190425113530 55 213 0.0 0.0 0.00 0.05 0.01 96 1006.9
20190425113031 55 213 0.0 0.0 0.00 0.05 0.01 96 1006.9
20190425112530 55 213 0.0 0.0 0.00 0.05 0.01 96 1006.9
20190425112031 55 213 0.0 0.0 0.00 0.05 0.01 96 1006.8
20190425111530 55 213 0.0 0.0 0.00 0.05 0.01 96 1006.8
20190425111029 55 213 0.0 0.0 0.01 0.05 0.01 96 1006.8
20190425110531 55 213 0.0 0.0 0.01 0.05 0.01 95 1006.8
20190425110031 55 213 0.0 0.0 0.01 0.05 0.01 95 1006.8
20190425105530 55 213 0.0 0.0 0.01 0.05 0.01 95 1006.8
20190425105030 55 213 0.0 0.0 0.01 0.05 0.01 95 1006.8
20190425104531 55 213 0.0 0.0 0.01 0.05 0.01 95 1006.8
20190425104030 55 213 0.0 0.0 0.01 0.05 0.01 95 1006.7
20190425103530 55 213 0.0 0.0 0.01 0.05 0.01 95 1006.7
20190425103031 55 213 0.0 0.0 0.01 0.05 0.01 95 1006.8
20190425102530 55 213 0.0 0.0 0.01 0.05 0.01 95 1006.8
20190425102030 55 213 0.0 0.0 0.01 0.05 0.01 95 1006.7
20190425101531 55 213 0.0 0.0 0.01 0.06 0.01 95 1006.6
20190425101030 55 213 0.0 0.0 0.00 0.05 0.00 95 1006.7
20190425100530 55 213 0.0 0.0 0.00 0.05 0.00 95 1006.8
20190425100030 55 213 0.0 0.0 0.00 0.05 0.00 95 1006.8
20190425095530 55 213 0.0 0.0 0.00 0.05 0.00 95 1006.7
20190425095030 55 213 0.0 0.0 0.00 0.05 0.00 95 1006.7
20190425094530 55 213 0.0 0.0 0.00 0.05 0.00 96 1006.7
20190425094031 55 213 0.0 0.0 0.00 0.05 0.00 96 1006.7
20190425093530 55 213 0.0 0.0 0.00 0.05 0.00 96 1006.8
20190425093030 55 213 0.0 0.0 0.00 0.05 0.00 96 1006.9
20190425092530 55 213 0.0 0.0 0.00 0.05 0.00 95 1006.8
20190425091531 55 213 0.0 0.0 0.00 0.06 0.00 95 1006.9
20190425091030 55 213 0.0 0.0 0.00 0.07 0.00 95 1006.9
20190425090530 55 213 0.0 0.0 0.00 0.07 0.00 95 1006.9
20190425090029 55 213 0.0 0.0 0.00 0.07 0.00 95 1006.8
20190425085530 55 213 0.0 0.0 0.00 0.07 0.00 95 1006.7
20190425085030 55 213 0.0 0.0 0.00 0.07 0.00 95 1006.7
20190425084530 56 213 0.0 0.0 0.00 0.09 0.00 95 1006.8
20190425084030 56 213 0.0 0.0 0.00 0.10 0.00 95 1006.7
20190425083530 56 213 0.0 0.0 0.00 0.11 0.00 95 1006.7
20190425083030 56 213 0.0 0.0 0.00 0.12 0.00 95 1006.7
20190425082531 56 213 0.0 0.0 0.00 0.12 0.00 95 1006.7
20190425082030 56 213 0.0 0.0 0.00 0.12 0.00 95 1006.7
20190425081531 56 213 0.0 0.0 0.00 0.12 0.00 95 1006.7
20190425081030 56 213 0.0 0.0 0.00 0.12 0.00 95 1006.7
20190425080529 56 213 0.0 0.0 0.00 0.13 0.00 95 1006.8
20190425080030 56 213 0.0 0.0 0.00 0.13 0.00 95 1006.8
20190425075530 56 213 0.0 0.0 0.00 0.13 0.00 95 1007.0
20190425075030 56 213 0.0 0.0 0.00 0.13 0.00 95 1007.1
20190425074533 56 213 0.0 0.0 0.00 0.13 0.00 95 1007.2
20190425074032 56 213 0.0 0.0 0.00 0.13 0.00 95 1007.3
20190425073530 56 213 0.0 0.0 0.00 0.14 0.00 95 1007.2
20190425073030 56 213 0.0 0.0 0.00 0.15 0.00 95 1007.2
20190425072530 56 213 0.0 0.0 0.00 0.15 0.00 95 1007.2
20190425072030 56 213 0.0 0.0 0.00 0.16 0.00 95 1007.2
20190425071530 56 213 0.0 0.0 0.00 0.17 0.00 95 1007.3
20190425071030 56 213 0.0 0.0 0.00 0.18 0.00 95 1007.4
20190425070529 56 213 0.0 0.0 0.00 0.18 0.00 95 1007.3
20190425070030 56 213 0.0 0.0 0.00 0.19 0.00 95 1007.4
20190425065530 56 213 0.0 0.0 0.00 0.19 0.00 95 1007.6
20190425065030 56 213 0.0 0.0 0.00 0.19 0.00 95 1007.8
20190425064530 56 213 0.0 0.0 0.00 0.20 0.00 95 1007.9
20190425064030 56 213 0.0 0.0 0.00 0.20 0.00 95 1008.0
20190425063530 56 213 0.0 0.0 0.00 0.20 0.00 95 1008.0
20190425063029 56 213 0.0 0.0 0.00 0.21 0.00 95 1008.0
20190425062529 56 213 0.0 0.0 0.00 0.21 0.00 95 1008.0
20190425062030 56 213 0.0 0.0 0.00 0.21 0.00 95 1008.2
20190425061530 56 213 0.0 0.0 0.00 0.21 0.00 95 1008.3
20190425061029 56 213 0.0 0.0 0.00 0.21 0.00 95 1008.3
20190425060529 56 213 0.0 0.0 0.00 0.21 0.00 95 1008.3
20190425060030 56 213 0.0 0.0 0.00 0.21 0.00 95 1008.4
20190425055529 56 213 0.0 0.0 0.00 0.21 0.00 95 1008.3
20190425055054 56 213 0.0 0.0 0.00 0.22 0.00 95 1008.3
20190425054530 56 213 0.0 0.0 0.00 0.22 0.00 95 1008.4
20190425054029 56 213 0.0 0.0 0.00 0.22 0.00 95 1008.6
20190425053530 56 213 0.0 0.0 0.00 0.23 0.00 95 1008.7
20190425053030 56 213 0.0 0.0 0.00 0.24 0.00 95 1008.7
20190425052531 56 213 0.0 0.0 0.00 0.25 0.00 95 1008.8
20190425052030 56 213 0.0 0.0 0.00 0.26 0.00 95 1008.7
20190425051530 56 213 0.0 0.0 0.00 0.27 0.00 95 1008.6
20190425051029 56 213 0.0 0.0 0.00 0.27 0.00 95 1008.7
20190425050530 56 213 0.0 0.0 0.00 0.27 0.00 95 1008.8
20190425050030 56 213 0.0 0.0 0.00 0.27 0.00 95 1008.7
20190425045533 56 213 0.0 0.0 0.00 0.27 0.00 95 1008.6
20190425045031 56 213 0.0 0.0 0.00 0.27 0.27 95 1008.6
20190425044530 56 213 0.0 0.0 0.00 0.27 0.27 95 1008.7
20190425044030 56 213 0.0 0.0 0.00 0.27 0.27 95 1008.8
20190425043530 56 213 0.0 0.0 0.00 0.27 0.27 95 1008.8
20190425043030 56 213 0.0 0.0 0.00 0.27 0.27 95 1008.7
20190425042530 56 213 0.0 0.0 0.00 0.27 0.27 95 1008.7
20190425042030 56 213 0.0 0.0 0.00 0.27 0.27 95 1008.7
20190425041530 56 213 0.0 0.0 0.00 0.27 0.27 95 1008.8
20190425041029 56 213 0.0 0.0 0.00 0.27 0.27 95 1009.0
20190425040530 56 213 0.0 0.0 0.00 0.27 0.27 95 1009.1
20190425040030 56 213 0.0 0.0 0.00 0.27 0.27 95 1009.2
20190425035531 56 213 0.0 0.0 0.00 0.27 0.27 95 1009.2
20190425035030 56 213 0.0 0.0 0.00 0.27 0.27 95 1009.3
20190425034535 56 213 0.0 0.0 0.00 0.27 0.27 95 1009.3
20190425034032 56 213 0.0 0.0 0.00 0.27 0.27 95 1009.3
20190425033530 56 213 0.0 0.0 0.00 0.27 0.27 95 1009.3
20190425033030 56 213 0.0 0.0 0.00 0.27 0.27 95 1009.4
20190425032529 56 213 0.0 0.0 0.00 0.27 0.27 95 1009.3
20190425032031 56 213 0.0 0.0 0.00 0.27 0.27 95 1009.3
20190425031530 56 213 0.0 0.0 0.00 0.28 0.27 95 1009.4
20190425031030 56 213 0.0 0.0 0.00 0.28 0.27 95 1009.4
20190425030530 56 213 0.0 0.0 0.00 0.28 0.27 95 1009.3
20190425030031 56 213 0.0 0.0 0.00 0.28 0.27 95 1009.4
20190425025531 56 213 0.0 0.0 0.00 0.28 0.27 95 1009.3
20190425025030 56 213 0.0 0.0 0.00 0.28 0.27 95 1009.1
20190425024530 56 213 0.0 0.0 0.00 0.28 0.27 95 1009.1
20190425024030 56 213 0.0 0.0 0.00 0.28 0.27 95 1009.1
20190425023530 56 213 0.0 0.0 0.00 0.28 0.27 95 1009.1
20190425023030 56 213 0.0 0.0 0.00 0.28 0.27 95 1009.2
20190425022531 56 213 0.0 0.0 0.00 0.28 0.27 95 1009.1
20190425022030 56 213 0.0 0.0 0.00 0.28 0.27 95 1009.1
20190425021532 56 213 0.0 0.0 0.00 0.28 0.27 95 1009.1
20190425021030 56 213 0.0 0.0 0.00 0.28 0.27 95 1008.9
20190425020531 56 213 0.0 0.0 0.00 0.28 0.27 95 1008.8
20190425020029 56 213 0.0 0.0 0.00 0.28 0.27 95 1008.9
20190425015531 57 213 0.0 0.0 0.00 0.28 0.27 95 1008.8
20190425015031 57 213 0.0 0.0 0.00 0.28 0.27 95 1008.8
20190425014530 57 213 0.0 0.0 0.00 0.28 0.27 95 1009.0
20190425014029 57 213 0.0 0.0 0.00 0.28 0.27 95 1008.9
20190425013530 57 213 0.0 0.0 0.00 0.28 0.27 95 1009.0
20190425013031 57 213 0.0 0.0 0.00 0.28 0.27 95 1009.0
20190425012530 57 213 0.0 0.0 0.00 0.28 0.27 95 1009.2
20190425012030 57 213 0.0 0.0 0.00 0.28 0.27 95 1009.1
20190425011530 57 213 0.0 0.0 0.00 0.28 0.27 95 1008.9
20190425011030 57 213 0.0 0.0 0.00 0.28 0.27 95 1009.1
20190425010531 57 213 0.0 0.0 0.00 0.28 0.27 95 1009.2
20190425010029 57 213 0.0 0.0 0.00 0.28 0.27 95 1009.4
20190425005530 57 213 0.0 0.0 0.00 0.28 0.27 95 1009.4
20190425005033 57 213 0.0 0.0 0.00 0.28 0.27 95 1009.5
20190425004529 57 213 0.0 0.0 0.00 0.28 0.27 95 1009.5
20190425004030 57 213 0.0 0.0 0.00 0.28 0.27 95 1009.4
20190425003529 57 213 0.0 0.0 0.00 0.28 0.27 95 1009.2
20190425003030 57 213 0.0 0.0 0.00 0.28 0.27 95 1009.2
20190425002530 57 213 0.0 0.0 0.00 0.28 0.27 95 1008.9
20190425002030 57 213 0.0 0.0 0.00 0.28 0.27 95 1008.9
20190425001530 57 213 0.0 0.0 0.00 0.28 0.27 95 1008.8
20190425001030 57 213 0.0 0.0 0.00 0.28 0.27 95 1008.8
20190425000530 57 213 0.0 0.0 0.00 0.28 0.27 95 1008.7
20190425000029 57 213 0.0 0.0 0.00 0.28 0.27 95 1008.7
20190424235530 57 213 0.0 0.0 0.00 0.28 0.27 95 1008.7
20190424235033 57 213 0.0 0.0 0.00 0.28 0.27 95 1008.8
20190424234530 57 213 0.0 0.0 0.00 0.28 0.27 95 1008.9
20190424234033 57 213 0.0 0.0 0.00 0.28 0.27 95 1008.9
20190424233529 57 213 0.0 0.0 0.00 0.28 0.27 95 1009.0
20190424233030 57 213 0.0 0.0 0.00 0.28 0.27 95 1009.0
20190424232531 57 213 0.0 0.0 0.00 0.28 0.27 95 1009.0
20190424232030 57 213 0.0 0.0 0.00 0.28 0.27 95 1009.0
20190424231530 57 213 0.0 0.0 0.00 0.28 0.27 95 1008.9
20190424231031 57 213 0.0 0.0 0.00 0.28 0.27 95 1009.0
20190424230530 57 213 0.0 0.0 0.00 0.28 0.27 95 1009.0
20190424230030 57 213 0.0 0.0 0.00 0.28 0.27 95 1008.9
20190424225529 57 213 0.0 0.0 0.00 0.28 0.27 95 1008.9
20190424225029 57 213 0.0 0.0 0.00 0.28 0.27 95 1008.9
20190424224530 57 213 0.0 0.0 0.00 0.28 0.27 95 1009.1
20190424224029 57 213 0.0 0.0 0.00 0.28 0.27 95 1009.0
20190424223529 57 213 0.0 0.0 0.00 0.28 0.27 95 1009.0
20190424223029 57 213 0.0 0.0 0.00 0.28 0.27 95 1009.1
20190424222530 57 213 0.0 0.0 0.00 0.28 0.27 95 1009.1
20190424222030 57 213 0.0 0.0 0.00 0.28 0.27 95 1008.9
20190424221530 57 213 0.0 0.0 0.00 0.28 0.27 95 1009.1
20190424221029 57 213 0.0 0.0 0.00 0.28 0.27 95 1009.0
20190424220530 57 213 0.0 0.0 0.00 0.28 0.27 95 1009.0
20190424220030 57 213 0.0 0.0 0.00 0.28 0.27 95 1009.1
20190424215529 58 213 0.0 0.0 0.00 0.28 0.27 95 1009.0
20190424215030 57 213 0.0 0.0 0.00 0.28 0.27 95 1009.0
20190424214530 57 213 0.0 0.0 0.00 0.29 0.27 95 1009.1
20190424214033 58 213 0.0 0.0 0.00 0.29 0.27 95 1009.1
20190424213530 58 213 0.0 0.0 0.00 0.29 0.27 95 1009.1
20190424213029 58 213 0.0 0.0 0.00 0.29 0.27 95 1009.1
20190424212529 58 215 0.0 0.0 0.00 0.29 0.27 95 1009.0
20190424212029 58 215 0.0 0.0 0.00 0.29 0.27 95 1009.2
20190424211530 58 215 0.0 0.0 0.00 0.29 0.27 95 1009.3
20190424211033 58 215 0.0 0.0 0.00 0.29 0.27 95 1009.5
20190424210530 58 202 0.0 0.0 0.00 0.29 0.27 95 1009.4
20190424210031 58 200 0.0 0.0 0.00 0.29 0.27 95 1009.3
20190424205530 58 202 0.0 0.0 0.00 0.29 0.27 95 1009.3
20190424205029 58 202 0.0 0.0 0.00 0.29 0.27 95 1009.4
20190424204530 58 202 0.0 0.0 0.00 0.29 0.27 95 1009.3
20190424204029 58 202 0.0 0.0 0.00 0.29 0.27 95 1009.4
20190424203530 58 202 0.0 0.0 0.00 0.29 0.27 95 1009.4
20190424203029 58 202 0.0 0.0 0.00 0.29 0.27 95 1009.5
20190424202531 57 202 0.0 0.0 0.00 0.29 0.27 95 1009.5
20190424202029 58 202 0.0 0.0 0.00 0.29 0.27 95 1009.5
20190424201530 58 202 0.0 0.0 0.00 0.29 0.27 95 1009.5